Weather History for Tin City, AK

Change the Weather History Date:

Thursday, November 10, 2011

  Actual Average Record
Temperature  
Mean Temperature 27 °F -  
Max Temperature 30 °F 25 °F 66 °F (2014)
Min Temperature 24 °F 17 °F 1 °F (2002)
Degree Days  
Heating Degree Days 38    
Moisture  
Dew Point 22 °F    
Average Humidity 79    
Maximum Humidity 93    
Minimum Humidity 58    
Precipitation  
Precipitation 0.00 in - - ()
Sea Level Pressure  
Sea Level Pressure 29.22 in    
Wind  
Wind Speed 17 mph (West)    
Max Wind Speed 29 mph    
Max Gust Speed 36 mph    
Visibility 4 miles    
Events Rain , Snow    
Averages and records for this station are not official NWS values.
T = Trace of Precipitation, MM = Missing Value Source: NWS Daily Summary

Daily Weather History Graph

Daily Weather History Graph

Search for Another Location

Airport:

Trip Planner

Search our weather history database for the weather conditions in past years. The results will help you decide how hot, cold, wet, or windy it might be!

Date:

Astronomy

Nov. 10, 2011 Rise Set
Actual Time 10:36 AM AKST 5:14 PM AKST
Civil Twilight 9:34 AM AKST 6:16 PM AKST
Nautical Twilight 8:31 AM AKST 7:18 PM AKST
Astronomical Twilight 7:32 AM AKST 8:17 PM AKST
Moon 4:32 PM AKST (11/10) 11:15 AM AKST (11/10)
Length of Visible Light 8h 42m
Length of Day
6h 37m
Full, 100% of the Moon is Illuminated
Nov 10
Full
Nov 18
Last Quarter
Nov 24
New
Dec 2
First Quarter
Dec 10
Full

Hourly Weather History & Observations

Time (AKST) Temp. Windchill Dew Point Humidity Pressure Visibility Wind Dir Wind Speed Gust Speed Precip Events Conditions
12:55 AM 30.9 °F 19.4 °F 25.2 °F 79% 28.76 in 4.0 mi SSE 17.3 mph - N/A   Unknown
1:55 AM 30.0 °F 20.0 °F 24.1 °F 79% 28.78 in 4.0 mi SSE 12.7 mph - N/A   Unknown
2:20 AM 30.2 °F 19.3 °F 28.4 °F 93% 28.80 in 5.0 mi SSE 15.0 mph - N/A   Mostly Cloudy
3:30 AM 30.2 °F 21.9 °F 28.4 °F 93% 29.83 in 5.0 mi SE 9.2 mph - N/A   Mostly Cloudy
3:55 AM 30.2 °F 23.4 °F 28.4 °F 93% 28.85 in 5.0 mi SE 6.9 mph - N/A   Mostly Cloudy
4:05 AM 28.4 °F 22.2 °F 26.6 °F 93% 28.86 in 5.0 mi SE 5.8 mph - N/A   Overcast
4:48 AM 28.4 °F 23.3 °F 26.6 °F 93% 28.90 in 3.0 mi South 4.6 mph - N/A Snow Light Snow
4:55 AM 28.4 °F 23.3 °F 26.6 °F 93% 28.90 in 3.0 mi West 4.6 mph - N/A Snow Light Snow
5:40 AM 28.4 °F 13.0 °F 26.6 °F 93% 28.90 in 2.0 mi NW 28.8 mph - N/A Snow Light Snow
5:55 AM 28.4 °F 13.3 °F 26.6 °F 93% 28.94 in 2.0 mi NW 27.6 mph 35.7 mph N/A Snow Light Snow
6:55 AM 28.4 °F 14.1 °F 26.6 °F 93% 29.02 in 2.0 mi NW 24.2 mph - N/A Snow Light Snow
7:55 AM 28.4 °F 15.1 °F 26.6 °F 93% 29.09 in 4.0 mi NW 20.7 mph - N/A Snow Light Snow
8:40 AM 28.4 °F 14.4 °F 26.6 °F 93% 29.14 in 5.0 mi NW 23.0 mph - N/A Snow Light Snow
8:55 AM 28.4 °F 14.7 °F 23.0 °F 80% 29.14 in 5.0 mi NW 21.9 mph - N/A Snow Blowing Snow
9:15 AM 28.4 °F 14.7 °F 21.2 °F 74% 29.17 in 5.0 mi NW 21.9 mph - N/A Snow Blowing Snow
9:30 AM 28.4 °F 17.5 °F 21.2 °F 74% 29.19 in 5.0 mi WNW 13.8 mph - N/A Snow Blowing Snow
9:55 AM 28.4 °F 16.6 °F 21.2 °F 74% 29.21 in 5.0 mi WNW 16.1 mph - N/A Snow Blowing Snow
10:15 AM 28.4 °F 15.4 °F 19.4 °F 69% 29.24 in 5.0 mi West 19.6 mph - N/A Rain , Snow Light Freezing Rain
10:55 AM 26.6 °F 13.8 °F 17.6 °F 69% 29.27 in 5.0 mi WNW 17.3 mph 25.3 mph N/A Rain Light Freezing Rain
11:55 AM 26.6 °F 14.3 °F 19.4 °F 74% 29.32 in 7.0 mi West 16.1 mph - N/A   Overcast
12:55 PM 26.6 °F 11.4 °F 19.4 °F 74% 29.37 in 5.0 mi West 25.3 mph - N/A   Overcast
1:55 PM 24.8 °F 10.3 °F 17.6 °F 74% 29.42 in 7.0 mi West 20.7 mph - N/A   Mostly Cloudy
3:55 PM 24.1 °F 8.0 °F 16.2 °F 72% 29.49 in 3.0 mi West 25.3 mph - N/A   Unknown
4:55 PM 24.1 °F 8.3 °F 16.2 °F 72% 29.53 in 3.0 mi West 24.2 mph - N/A   Unknown
5:55 PM 24.1 °F 9.0 °F 15.1 °F 69% 29.56 in 3.0 mi West 21.9 mph - N/A   Unknown
6:55 PM 24.1 °F 8.0 °F 15.1 °F 69% 29.58 in 4.0 mi West 25.3 mph - N/A   Unknown
7:55 PM 25.0 °F 10.2 °F 14.0 °F 63% 29.60 in 4.0 mi West 21.9 mph - N/A   Unknown
8:55 PM 25.0 °F 11.3 °F 12.0 °F 58% 29.62 in 5.0 mi West 18.4 mph - N/A   Unknown
9:55 PM 26.1 °F 12.3 °F 14.0 °F 60% 29.63 in 5.0 mi West 19.6 mph - N/A   Unknown
11:55 PM 27.0 °F 15.6 °F 17.1 °F 66% 29.64 in 5.0 mi SW 13.8 mph - N/A   Unknown